GFSMA_prec_cloud_204.txt.gz
Cloud_Cover
19 90 100 79 5 5 5 5 41 47 99 88 100 99 100 100 100 94 100 82 5 5 76 7 24 40 37 59 78 71 98 72 95 100 98 93 100 93 67 100 100 100 100
5 95 23 23 11 5 5 14 86 98 100 100 100 98 91 94 100 100 99 28 27 9 51 6 57 100 100 100 100 93 98 100 99 95 100 100 100 96 98 69 96 94 100
7 7 5 5 94 26 35 100 100 100 100 100 100 100 100 100 100 100 100 100 100 100 100 100 100 100 100 100 100 100 100 100 100 100 100 99 62 84 53 100 100 72 50
70 28 5 10 29 72 16 51 91 36 35 27 19 63 34 100 100 100 100 100 100 100 100 100 100 100 100 95 98 100 100 100 100 100 100 100 100 31 25 40 96 100 99
92 38 7 32 62 71 94 27 100 100 100 100 100 100 100 100 100 100 100 100 99 100 100 100 100 100 100 100 96 100 100 100 100 100 100 100 100 100 100 79 93 91 86
100 100 10 31 100 100 100 100 100 100 100 100 90 100 100 100 100 100 100 100 100 100 100 100 100 100 100 100 100 100 100 100 100 100 100 100 100 100 99 100 97 97 91
100 100 89 100 100 68 100 100 76 81 95 82 100 100 100 100 100 100 100 100 100 100 100 100 100 100 100 100 100 100 100 100 100 100 100 100 87 100 100 99 47 46 42
100 100 100 100 100 90 100 100 100 96 100 98 90 100 100 100 100 100 100 100 100 100 100 100 100 100 100 100 100 100 100 100 100 100 100 39 86 55 81 100 99 75 100
100 100 100 100 100 100 100 100 100 100 100 100 98 100 100 100 100 100 100 100 100 100 100 100 100 100 100 100 100 100 100 100 100 87 89 100 100 100 98 74 77 88 73
100 100 100 100 100 100 100 100 100 100 100 100 100 100 100 100 100 100 100 100 100 100 100 100 100 100 100 100 100 100 100 100 100 100 99 98 100 100 100 100 100 100 100
100 100 100 100 100 100 100 100 100 100 100 100 100 100 100 100 100 100 100 100 100 100 100 100 100 100 100 100 100 100 100 100 100 100 100 100 100 100 99 100 100 100 100
100 100 100 100 100 100 100 100 100 100 100 100 100 100 100 100 100 100 100 100 100 100 100 100 100 100 100 100 100 100 100 100 100 96 84 100 100 100 100 93 100 100 100
100 100 100 99 86 100 100 100 100 100 100 100 100 100 100 100 100 100 100 100 100 100 100 100 100 100 100 100 100 100 100 100 100 100 100 100 100 100 100 100 100 100 100
100 100 100 97 96 83 100 100 100 100 100 100 100 100 100 100 100 100 100 100 100 100 100 100 100 100 100 100 100 100 100 100 100 100 100 100 100 100 98 99 99 100 100
100 100 100 100 100 100 100 100 99 99 100 100 100 100 100 100 100 100 100 100 100 100 100 100 100 100 100 100 100 100 100 100 100 100 100 100 100 100 100 100 100 100 100
100 100 100 100 100 100 100 96 91 95 100 100 100 100 100 100 100 100 100 100 100 100 100 100 100 100 100 100 100 100 100 100 100 100 100 100 100 100 100 100 100 100 100
100 100 100 100 100 100 86 100 100 100 100 100 100 100 100 100 100 100 100 100 100 100 100 100 100 100 100 100 100 100 100 100 100 100 100 100 100 100 100 100 100 100 100
100 100 100 100 100 100 100 100 100 100 100 99 89 100 100 100 100 100 100 100 100 100 100 100 100 100 100 100 100 100 100 100 100 100 100 100 100 100 100 100 100 100 74
100 100 100 100 100 100 100 100 100 100 100 100 100 100 100 100 100 100 100 100 100 100 100 100 100 100 100 100 100 100 100 100 100 100 100 92 100 100 100 100 88 100 13
100 100 100 100 100 100 100 100 100 100 100 100 100 100 100 100 100 100 100 100 100 100 100 100 100 100 100 100 100 100 100 100 100 100 100 100 100 100 100 100 100 96 80
100 100 74 78 90 100 99 100 98 100 100 100 100 100 100 100 100 100 100 100 100 100 100 100 100 100 100 100 100 100 100 100 100 100 100 100 100 100 100 100 100 55 13
100 100 99 77 99 100 100 100 100 100 100 100 100 100 100 100 100 100 100 100 100 100 100 100 100 100 100 100 100 100 100 100 100 100 100 100 100 100 100 100 74 100 5
98 100 100 100 100 100 100 100 100 100 100 100 100 100 100 100 100 100 100 100 100 100 100 100 100 100 100 100 100 100 100 100 100 100 100 100 100 100 100 99 62 5 5
86 99 100 100 100 100 100 100 100 100 100 100 100 100 100 100 100 100 100 100 100 100 100 100 100 100 100 100 100 100 100 100 100 100 100 100 100 100 100 84 5 5 5
100 100 100 100 100 100 100 100 100 100 100 100 100 100 100 100 100 100 100 100 100 100 100 100 100 100 100 100 100 100 100 100 100 100 100 100 100 100 100 100 97 91 8
100 100 100 100 100 100 100 100 100 100 100 100 100 100 100 100 93 100 100 100 100 100 100 100 100 100 100 100 100 100 100 100 100 100 100 100 100 100 100 100 100 100 86

GFSMA_prec_cloud_210.txt.gz
Cloud_Cover
8 74 13 88 5 4 5 3 20 20 100 100 100 100 100 100 90 100 50 36 100 100 35 99 100 100 100 100 100 99 100 100 100 100 100 100 100 100 100 100 100 100 99
34 85 93 100 8 5 11 4 2 2 89 94 100 90 26 30 5 63 23 6 58 99 100 100 82 100 100 100 72 100 96 100 100 100 100 100 100 100 100 100 100 100 100
5 5 99 100 79 96 68 45 10 20 59 81 18 8 5 6 37 96 73 5 5 18 100 99 91 100 100 98 81 100 100 100 100 100 100 100 100 100 100 100 100 100 100
6 93 100 100 100 100 100 100 63 100 58 5 6 4 2 0 6 6 9 31 15 5 62 100 100 100 100 100 100 100 100 100 100 100 100 100 100 100 100 100 100 100 100
98 96 100 100 100 100 100 96 42 45 74 15 54 5 5 5 5 19 19 5 54 30 99 100 100 100 100 100 100 100 100 100 100 100 100 100 100 100 100 100 100 100 100
96 100 81 100 100 100 100 90 36 5 74 97 93 100 100 66 9 5 100 19 33 62 50 58 100 100 100 100 100 100 100 100 100 100 100 100 100 100 100 100 100 100 100
100 100 100 44 76 100 100 100 64 7 100 99 49 38 26 9 35 29 20 70 26 5 15 10 47 96 100 100 100 100 100 100 100 100 100 100 100 100 100 100 100 100 100
47 100 100 100 100 100 100 100 98 100 100 100 75 28 47 20 63 100 54 88 81 59 100 100 100 80 100 100 100 100 100 100 100 100 100 100 100 100 100 100 100 100 100
94 87 95 100 100 100 100 100 100 100 100 100 100 100 99 93 56 73 100 96 90 95 86 98 100 100 100 100 100 100 100 100 100 100 100 99 100 100 100 99 92 97 100
100 100 100 100 90 99 100 100 100 100 100 100 100 99 98 99 100 100 69 80 100 100 98 100 100 100 100 100 100 100 100 100 100 100 100 100 100 100 100 100 100 100 100
100 100 100 100 100 100 94 100 100 100 100 100 100 100 100 100 100 100 100 100 100 100 100 100 100 100 100 100 100 100 100 100 100 100 100 100 100 100 100 100 100 100 100
100 100 100 100 100 100 100 100 100 100 100 100 100 100 100 100 100 100 100 100 100 100 100 100 100 100 100 100 100 100 100 100 100 100 100 100 100 100 100 100 100 100 100
100 100 100 100 100 100 100 100 100 100 100 100 100 100 100 100 100 100 100 100 100 100 96 100 100 100 100 100 100 100 100 100 100 100 100 100 100 100 100 100 100 100 100
100 100 100 100 100 100 100 100 100 100 100 100 100 100 100 100 100 100 100 100 100 100 100 100 100 100 100 100 100 100 100 100 100 100 100 100 100 100 100 100 100 100 100
100 100 100 100 100 100 100 100 100 100 100 100 100 100 100 100 100 100 100 100 100 100 100 100 100 100 100 100 100 100 100 100 100 100 100 100 100 100 100 100 100 100 100
100 100 100 100 100 100 100 100 100 100 100 100 100 100 100 100 100 100 100 100 100 100 100 100 100 100 100 100 100 100 100 100 100 100 100 100 100 100 100 100 100 100 98
100 100 100 100 100 100 100 100 100 100 100 100 100 100 100 100 100 100 100 100 100 100 100 100 100 100 100 100 100 100 100 100 100 100 100 100 100 100 100 100 100 100 100
100 100 100 100 100 100 100 100 100 100 100 100 100 100 100 100 100 100 100 100 100 100 100 100 100 100 100 100 100 100 100 100 100 100 100 100 100 100 100 100 100 100 100
100 100 100 100 100 100 100 100 100 100 100 100 100 100 100 100 100 100 100 100 100 100 100 100 100 100 100 100 100 100 100 100 100 100 100 100 100 100 100 100 100 100 100
100 100 100 100 100 100 100 100 100 100 100 100 100 100 100 100 100 100 100 100 100 100 100 100 100 100 100 100 100 100 100 100 100 100 100 100 100 100 100 100 100 100 100
100 100 100 100 100 100 100 100 100 100 100 100 100 100 100 100 100 100 100 100 100 100 100 100 100 100 100 100 100 100 100 100 100 100 100 100 100 100 100 100 100 100 100
100 100 100 100 100 100 100 100 100 100 100 100 100 100 100 100 100 100 100 100 100 100 100 100 100 100 100 100 100 100 100 100 100 100 100 100 100 100 100 100 100 100 100
100 100 100 100 100 100 100 100 100 100 100 100 100 100 100 100 100 100 100 100 100 100 100 100 100 100 100 100 100 100 100 100 100 100 100 100 100 100 100 100 100 100 100
100 100 100 100 100 100 100 100 100 100 100 100 100 100 100 100 100 100 100 100 100 100 100 100 100 100 72 100 100 100 100 100 100 100 100 100 100 100 100 100 100 100 100
100 100 100 100 100 100 100 100 100 100 100 100 100 100 100 100 100 100 100 100 100 100 100 100 96 100 100 100 100 100 100 100 100 100 100 100 100 100 100 100 100 100 100
100 100 100 100 100 100 100 100 100 100 100 100 100 100 100 100 100 100 100 100 100 100 100 100 100 100 100 100 100 100 100 100 100 100 100 100 100 100 100 100 76 72 100

GFSMA_prec_cloud_216.txt.gz
Cloud_Cover
2 9 22 30 22 16 4 4 5 5 0 4 1 4 35 64 52 6 47 5 5 10 14 3 5 5 12 96 100 100 100 100 100 100 100 100 100 100 100 100 100 100 100
5 0 4 7 10 10 29 6 5 5 2 0 0 3 5 16 85 83 92 69 5 11 10 4 7 14 6 95 100 100 100 100 100 100 100 100 100 100 100 100 100 100 100
5 5 5 5 51 5 74 21 5 5 5 5 5 38 5 5 5 18 5 5 10 39 99 15 10 5 5 5 79 100 100 100 100 100 100 100 100 100 100 100 100 100 100
5 22 5 13 21 67 7 80 11 5 11 12 5 5 5 5 5 5 2 17 54 66 83 9 90 8 15 8 16 60 92 100 100 100 100 100 100 100 100 100 100 100 100
70 94 97 98 91 25 34 92 98 50 39 92 8 5 7 5 5 6 4 5 80 100 35 6 9 5 38 34 5 29 97 55 91 100 100 100 100 98 59 62 96 90 100
100 100 100 100 100 67 27 75 100 100 100 100 100 98 40 5 89 97 100 100 100 100 100 100 100 79 94 11 5 5 81 100 98 100 100 100 100 98 99 93 74 98 96
100 100 100 100 100 100 88 51 100 100 100 100 100 100 100 99 100 100 100 100 100 100 100 100 100 100 100 100 32 19 5 28 100 76 100 100 100 100 77 95 100 100 86
10 100 100 100 100 100 100 100 84 100 100 100 100 100 100 100 100 100 100 100 100 100 100 100 100 100 100 100 100 100 59 10 64 100 100 100 100 100 100 87 100 100 100
92 5 100 100 100 100 100 100 100 100 100 100 100 100 100 100 100 100 100 100 100 100 100 100 100 100 100 100 100 100 39 94 86 100 100 100 100 100 100 100 100 100 100
100 38 100 100 100 100 100 100 100 100 100 100 100 100 100 100 100 100 100 100 100 100 100 100 100 100 100 100 100 100 100 100 100 100 100 100 100 100 100 95 100 100 100
100 100 100 100 100 100 100 100 100 100 100 100 100 100 100 100 100 100 100 100 100 100 100 100 100 100 100 100 100 100 100 100 100 100 100 100 100 100 100 100 100 100 100
100 100 100 100 100 100 100 100 100 100 100 99 100 100 100 100 100 100 100 100 100 100 100 100 100 100 100 100 100 100 100 100 100 100 100 100 100 100 100 100 100 100 100
100 100 100 100 100 100 100 100 100 100 100 100 100 100 100 100 100 100 100 100 100 100 100 100 100 100 100 100 100 97 100 100 100 100 100 100 100 100 100 100 100 100 100
100 100 100 100 100 100 100 100 100 100 100 100 100 100 100 100 100 100 100 100 100 100 100 100 100 100 100 100 100 100 100 100 100 100 100 100 100 100 100 100 100 100 100
100 100 100 100 100 100 100 100 100 100 100 100 100 100 100 100 100 100 100 100 100 100 100 100 100 100 100 100 100 100 100 100 100 100 100 100 100 100 100 100 100 100 100
100 100 100 100 100 100 100 100 100 100 100 100 100 100 100 100 100 100 100 100 100 100 100 100 100 100 100 100 100 100 100 100 100 100 100 100 100 100 100 100 100 100 100
79 86 100 100 100 100 100 100 100 100 100 100 100 100 100 100 100 100 100 100 100 100 100 100 100 100 100 100 100 100 100 100 100 100 100 100 100 100 100 100 100 100 100
98 100 100 100 100 100 100 100 100 100 100 100 100 100 100 100 100 100 100 100 100 100 100 100 100 100 100 100 100 100 100 100 100 100 100 100 100 100 100 100 100 100 100
100 100 100 100 100 100 100 100 100 100 100 100 100 100 100 100 100 100 100 100 100 100 100 100 100 100 100 100 100 100 100 100 100 100 100 100 100 100 100 100 100 100 100
100 100 100 100 100 100 100 100 100 100 100 100 100 100 100 100 100 100 100 100 100 100 100 100 100 100 100 100 100 100 100 100 100 100 100 100 100 100 100 100 100 100 100
100 100 100 100 100 100 100 100 100 100 100 100 100 100 100 100 100 100 100 100 100 100 100 100 100 100 100 100 100 100 100 100 100 100 100 100 100 100 100 100 100 100 100
100 100 100 100 100 100 100 100 100 100 96 100 100 100 100 100 100 100 100 100 100 100 100 100 100 100 100 100 100 100 100 100 100 100 100 100 100 100 100 100 100 100 100
100 100 100 100 100 100 100 100 100 100 100 100 100 100 100 100 100 100 100 100 100 100 100 100 100 100 100 100 100 100 100 100 100 100 100 100 100 100 100 100 100 100 100
98 96 100 100 100 100 100 100 100 100 100 100 100 100 100 100 100 100 100 100 100 100 100 100 100 100 100 100 100 100 100 100 100 100 100 100 100 100 100 100 100 100 100
100 100 100 100 100 100 100 100 96 100 100 100 100 100 100 100 100 100 100 100 100 100 100 100 100 100 100 100 100 100 100 100 100 100 100 100 100 100 100 100 100 100 100
100 100 100 100 100 100 100 100 100 100 100 100 100 100 100 100 100 100 100 100 100 100 100 100 100 100 100 100 100 100 100 100 100 100 100 100 100 100 100 100 100 100 100

GFSMA_prec_cloud_222.txt.gz
Cloud_Cover
53 88 72 77 99 32 16 20 5 0 5 1 4 0 0 0 0 0 0 4 4 58 16 55 99 28 74 100 100 78 19 34 63 90 56 6 8 100 100 100 75 93 95
17 64 72 84 69 100 21 84 14 6 5 5 3 5 5 5 5 5 5 5 4 5 9 51 40 92 35 46 23 80 54 100 100 99 97 100 100 100 100 100 100 100 4
6 6 22 48 35 100 100 74 100 98 97 5 5 5 5 5 5 5 58 100 100 100 100 100 85 45 12 52 53 99 99 100 100 100 100 94 100 100 100 100 100 100 31
1 5 10 13 63 35 100 100 100 100 100 91 100 53 63 47 74 100 100 97 100 94 100 100 100 100 100 87 76 75 94 100 100 100 100 100 100 100 100 100 100 66 24
5 2 5 5 23 44 50 100 100 100 100 100 100 99 88 100 100 100 100 100 93 97 100 100 100 100 100 100 36 54 80 93 70 99 100 100 100 100 100 100 100 100 94
5 5 5 6 43 60 22 99 100 100 100 100 100 100 88 100 88 100 100 100 82 17 100 100 100 100 100 100 100 99 100 95 93 61 89 100 100 100 100 100 100 100 100
4 5 5 5 14 90 33 56 100 100 100 100 100 100 100 100 100 98 100 100 100 100 100 100 100 100 100 100 100 100 100 100 80 87 100 100 100 100 100 100 100 100 100
0 4 5 9 5 98 100 62 73 100 100 100 100 100 100 100 87 96 100 100 100 100 100 100 100 100 100 100 100 100 100 100 100 100 100 100 100 100 100 100 100 100 93
0 3 4 5 5 64 100 86 82 100 100 100 100 100 100 100 98 100 100 100 100 100 100 100 100 100 100 100 100 100 100 100 92 100 100 100 100 100 100 100 100 100 100
5 4 5 5 5 37 100 100 99 100 100 98 100 100 100 100 100 100 100 100 100 100 100 100 100 100 100 100 100 100 100 100 100 100 100 100 100 100 100 100 100 100 100
26 6 8 6 24 81 79 100 100 100 100 100 100 100 100 100 100 100 100 100 100 100 100 100 100 100 100 100 100 100 100 100 100 100 100 100 100 100 100 100 100 100 100
100 86 98 7 5 5 21 64 100 100 100 100 100 100 100 100 100 100 100 100 100 100 100 100 100 100 100 100 100 100 100 100 100 100 100 100 100 100 100 100 100 100 100
99 87 100 62 82 5 5 12 53 83 100 100 100 100 100 100 100 100 100 100 100 100 100 100 100 100 100 100 100 100 100 100 100 100 100 100 100 100 100 100 100 100 100
74 98 66 70 91 71 44 51 63 68 100 100 100 100 100 100 100 100 100 100 100 100 100 100 100 100 100 100 100 100 100 100 100 100 100 100 100 100 100 100 100 100 100
11 94 22 56 60 73 86 100 100 100 100 100 100 100 100 100 100 100 100 100 100 100 100 100 100 100 100 100 100 100 100 100 100 100 100 100 100 100 100 100 100 100 100
19 33 52 68 100 100 100 100 100 100 100 100 100 100 100 100 100 100 100 100 100 100 100 100 100 100 100 100 100 100 100 100 100 100 100 100 100 100 100 100 100 100 100
43 76 92 99 100 100 100 100 100 100 100 100 100 100 100 100 100 100 100 100 100 100 100 100 100 100 100 100 100 100 100 100 100 100 100 100 100 100 100 100 100 100 100
76 100 99 100 100 100 100 100 100 100 100 100 100 100 100 100 100 100 100 100 100 100 100 100 100 100 100 100 100 100 100 100 100 100 100 100 100 100 100 100 100 100 100
100 100 100 100 100 100 100 100 100 100 100 100 100 100 100 100 100 100 100 100 100 100 100 100 100 100 100 100 100 100 100 100 100 100 100 100 100 100 100 100 100 100 100
100 100 100 100 100 100 100 100 100 100 100 100 100 100 100 100 100 100 100 100 100 100 100 100 100 100 100 100 100 100 100 100 100 100 100 100 100 100 100 100 100 100 100
100 100 100 100 100 100 100 100 100 100 100 100 100 100 100 100 100 100 100 100 100 100 100 100 100 100 100 100 100 100 100 100 100 100 100 100 100 100 100 100 100 100 100
100 100 100 100 100 100 100 100 100 100 100 100 100 100 100 100 100 100 100 100 100 100 100 100 100 100 100 100 100 100 100 100 100 100 100 100 100 100 100 100 100 100 100
100 100 100 100 100 100 100 100 100 100 100 100 100 100 100 100 100 100 100 100 100 100 100 100 100 100 100 100 100 100 100 100 100 100 100 100 100 100 100 100 100 100 100
100 100 100 100 100 100 100 100 100 100 100 100 100 100 100 100 100 100 100 100 100 100 100 100 98 100 100 100 100 100 100 100 100 100 100 100 100 100 100 100 100 100 100
100 100 100 100 100 100 100 100 100 100 100 100 100 100 100 100 100 100 100 100 100 100 100 100 100 100 100 100 100 100 100 100 100 100 100 100 100 100 100 100 100 100 100
100 100 100 100 100 100 100 100 100 100 100 100 100 100 100 100 100 100 100 100 100 100 100 100 100 100 100 100 100 100 100 100 100 100 100 100 100 100 100 100 100 100 100

GFSMA_prec_cloud_225.txt.gz
Cloud_Cover
0 0 0 5 5 37 52 39 73 7 19 9 2 4 1 4 0 0 2 4 5 4 5 13 100 25 68 75 63 43 28 60 61 100 98 100 52 45 100 100 100 100 100
5 5 0 3 5 5 42 15 77 100 68 96 90 6 5 2 5 5 11 12 5 5 2 5 20 68 88 100 100 100 100 100 100 100 100 100 100 100 100 98 98 100 100
1 5 5 5 5 5 5 42 97 100 100 100 100 100 13 5 18 16 89 8 60 40 5 21 89 100 34 39 93 100 100 100 100 100 100 100 100 100 100 100 100 100 100
0 1 1 5 5 30 7 5 29 76 89 100 100 100 100 100 32 6 6 5 23 100 100 100 100 84 56 100 100 99 100 100 100 100 100 100 100 100 100 100 100 100 100
4 3 3 2 5 11 54 7 5 29 64 100 100 100 100 100 100 19 5 16 29 47 95 100 100 100 98 100 100 100 54 83 87 66 100 100 100 100 100 100 100 100 100
1 0 0 0 5 5 64 64 22 5 98 100 100 100 100 100 100 100 100 92 96 98 100 100 99 100 100 100 100 100 100 100 99 99 100 85 100 100 100 100 100 100 100
5 5 4 5 0 0 5 32 96 74 97 73 100 100 100 100 100 100 100 100 100 91 59 99 88 63 68 100 100 100 100 100 100 100 100 100 100 100 100 100 100 100 100
5 5 5 5 0 0 2 5 10 38 95 99 100 100 100 100 100 100 100 99 100 100 90 100 100 87 55 100 100 100 100 100 100 100 100 100 100 100 100 100 100 100 100
5 5 5 5 5 4 5 5 6 6 93 100 100 100 100 100 100 100 100 87 100 92 100 100 100 100 100 100 100 100 100 100 100 100 100 100 100 100 100 100 100 100 100
5 5 5 5 5 5 5 5 5 18 100 100 100 100 100 100 100 100 100 100 100 100 100 100 100 100 100 100 100 100 100 100 100 100 100 100 100 100 100 100 100 100 100
5 5 5 5 5 5 5 5 0 5 18 99 99 100 100 100 100 100 100 100 100 100 100 100 100 100 100 100 100 100 100 100 100 100 100 100 100 100 100 100 100 100 100
8 5 5 5 6 5 5 5 5 0 5 37 81 100 96 79 100 100 100 100 100 100 100 100 100 100 100 100 100 100 100 100 100 100 100 100 100 100 100 100 100 100 100
65 16 12 25 6 5 15 31 49 22 31 31 25 100 100 100 100 100 100 100 100 100 100 100 100 100 100 100 100 100 100 100 100 100 100 100 100 100 100 100 100 100 100
20 21 26 25 32 49 66 73 96 94 97 99 97 100 100 100 100 100 100 100 100 100 100 100 100 100 100 100 100 100 100 100 100 100 100 100 100 100 100 100 100 100 100
4 17 42 48 51 62 72 100 100 100 100 100 100 100 100 100 100 100 100 100 100 100 100 100 100 100 100 100 100 100 100 100 100 100 100 100 100 100 100 100 100 100 100
4 4 38 58 98 100 100 100 100 100 100 100 100 100 100 100 100 100 100 100 100 100 100 100 100 100 100 100 100 100 100 100 100 100 100 100 100 100 100 100 100 100 100
5 13 37 64 100 100 100 100 100 100 100 100 100 100 100 100 100 100 100 100 100 100 100 100 100 100 100 100 100 100 100 100 100 100 100 100 100 100 100 100 100 100 100
96 83 90 100 100 100 100 100 100 100 100 100 100 100 100 100 100 100 100 100 100 100 100 100 100 100 100 100 100 100 92 100 100 100 100 100 100 100 100 100 100 100 100
100 100 100 100 100 100 100 100 100 100 100 100 100 100 100 100 100 100 100 100 100 100 100 100 100 100 100 100 91 100 100 100 100 100 100 100 100 100 100 100 100 100 100
100 100 100 100 100 100 100 100 100 100 100 100 100 100 100 100 100 100 100 100 100 100 100 100 100 100 100 100 100 100 100 100 100 100 100 95 100 100 100 100 100 100 100
100 100 100 100 100 100 100 100 100 100 100 100 100 100 100 100 100 100 100 100 100 100 100 100 100 100 100 100 100 100 100 100 100 100 100 100 100 100 100 100 100 100 100
100 100 100 100 100 100 100 100 100 100 100 100 100 100 100 100 100 100 100 100 81 100 99 100 100 100 100 100 100 100 100 100 100 100 100 100 100 100 100 100 100 100 100
100 100 100 100 100 100 100 100 100 100 100 100 100 100 100 100 100 97 100 100 100 100 100 100 100 100 100 100 77 100 100 100 100 100 100 100 100 100 100 100 100 100 100
100 100 100 100 100 100 100 100 100 100 100 100 100 100 100 100 100 100 100 100 100 100 100 100 100 100 100 100 100 100 100 100 100 100 100 100 100 100 100 100 100 100 100
100 100 100 100 100 100 100 100 100 100 100 100 100 100 100 100 100 100 100 100 100 100 100 100 100 100 100 100 100 100 100 100 100 100 100 100 100 100 100 100 100 100 100
100 100 100 100 100 100 100 100 100 100 100 100 100 100 100 100 100 100 100 100 100 100 100 100 100 100 100 100 100 100 100 100 100 100 100 100 100 99 100 100 100 100 100

GFSMA_prec_cloud_228.txt.gz
Cloud_Cover
1 0 0 0 1 3 5 8 5 74 100 66 5 41 50 62 5 5 1 2 0 0 1 0 15 5 10 40 64 22 16 23 100 100 100 100 100 100 100 100 100 100 100
5 0 0 0 0 2 2 5 5 5 15 100 95 66 86 100 94 5 7 12 4 8 45 4 6 99 100 100 100 90 57 95 43 97 100 100 86 100 72 100 100 100 49
5 5 5 0 5 5 5 4 5 5 6 25 100 100 100 100 100 100 98 71 15 41 5 1 5 5 5 6 54 100 100 100 57 88 100 100 100 99 100 100 100 100 21
3 2 0 3 5 5 1 5 5 6 5 59 100 100 100 100 100 100 100 56 20 90 92 46 15 5 5 19 9 75 100 100 100 100 100 99 20 56 99 100 100 100 86
0 0 0 0 2 5 5 5 5 28 82 95 55 95 100 100 100 100 100 100 100 92 28 67 62 79 39 27 19 57 81 100 100 100 100 100 100 100 100 100 100 100 100
5 5 5 5 4 5 5 30 4 5 20 58 20 68 100 100 100 100 100 100 100 100 100 100 100 52 100 87 89 96 96 66 100 100 100 100 100 100 100 100 100 100 100
19 5 5 5 5 5 5 27 9 1 5 5 5 100 100 13 97 100 100 100 100 100 100 100 49 100 100 100 100 100 100 100 100 100 100 100 100 100 100 100 100 100 100
18 5 5 5 5 5 6 6 5 5 5 5 5 5 72 100 100 100 100 100 100 100 100 100 99 100 100 100 100 100 100 100 100 100 100 100 100 100 100 100 100 100 100
5 5 5 5 5 5 5 5 6 34 5 4 7 86 73 80 100 100 100 100 100 100 100 96 100 100 100 100 100 100 100 100 100 100 100 100 100 100 100 100 100 100 100
4 1 1 0 0 0 2 5 5 5 5 4 8 70 86 92 22 100 100 100 100 100 100 100 100 100 100 100 100 100 100 100 100 100 100 100 100 100 100 100 100 100 100
0 0 0 3 0 0 0 5 5 5 2 0 0 11 47 100 100 100 100 100 100 100 100 100 100 100 100 100 100 100 100 100 100 100 100 100 100 100 100 100 100 100 100
1 0 0 1 0 0 2 1 0 0 0 0 5 12 44 78 100 100 100 93 100 100 100 100 100 100 100 100 100 100 100 100 100 100 100 100 100 100 100 100 100 100 100
0 0 0 2 0 0 0 0 0 0 4 36 47 52 91 83 74 100 100 100 99 100 100 100 100 100 100 100 100 100 100 100 100 100 100 100 100 100 100 100 100 100 100
0 0 0 0 8 5 10 8 18 57 56 91 97 98 100 98 69 100 100 100 100 100 100 100 100 100 100 100 100 100 100 100 100 100 100 100 100 100 100 100 100 100 100
0 0 0 0 18 29 51 94 100 100 100 100 100 100 100 100 100 100 100 100 100 100 100 100 100 100 100 100 100 100 100 100 100 100 100 100 100 100 100 100 100 100 100
0 0 0 10 28 45 89 100 100 100 100 100 100 100 100 100 100 100 100 100 100 100 100 100 100 100 100 100 100 100 100 100 100 100 100 100 100 100 100 100 100 100 100
0 0 0 18 49 94 100 100 100 100 100 100 100 100 100 100 100 100 100 100 100 100 100 100 100 100 100 100 100 100 100 100 100 100 97 100 100 100 100 100 100 100 100
1 1 1 5 51 100 100 100 100 100 100 100 100 100 100 100 100 100 100 100 100 100 100 100 100 100 100 100 100 100 100 100 100 100 100 100 100 100 100 100 100 100 100
6 5 5 61 86 100 100 100 100 100 100 100 100 100 100 100 100 100 100 100 100 100 100 100 100 100 100 100 100 100 100 100 100 100 100 100 100 100 100 100 100 100 100
5 5 27 84 100 100 100 100 98 100 100 100 100 100 100 100 100 100 100 100 100 100 100 100 100 100 100 100 100 85 100 100 100 100 100 100 82 98 100 100 100 100 100
99 93 97 100 99 100 100 100 100 100 100 100 100 100 100 100 100 100 100 100 100 100 100 100 100 100 100 100 100 100 100 100 100 100 100 90 99 96 100 100 100 100 100
100 100 100 100 100 100 100 100 100 100 100 100 100 100 100 100 100 100 100 100 100 100 100 100 100 88 100 100 100 100 100 100 99 100 100 100 100 100 93 100 100 99 100
100 100 100 100 99 100 100 100 100 100 100 100 100 100 100 100 100 100 100 100 100 100 100 100 98 100 100 100 100 100 100 55 73 93 97 100 100 100 100 100 100 100 100
100 100 98 93 100 100 100 100 100 100 100 100 100 100 100 100 100 99 100 100 100 100 100 100 100 100 100 100 100 96 78 83 98 100 93 100 100 100 100 100 100 100 100
100 100 100 100 100 100 100 100 100 100 100 100 100 100 100 100 99 100 100 100 100 100 100 100 100 100 100 100 98 100 100 100 100 100 100 100 100 100 100 100 100 100 100
100 100 100 100 100 100 100 100 100 100 100 100 100 100 100 100 100 100 100 100 100 100 100 100 100 100 100 95 91 82 100 99 100 100 100 100 100 100 100 100 100 100 100

GFSMA_prec_cloud_231.txt.gz
Cloud_Cover
0 0 0 1 5 5 3 5 5 7 65 100 100 100 100 100 100 21 100 33 2 2 2 4 5 16 2 4 2 8 62 100 100 100 100 92 100 82 100 99 8 31 100
2 4 5 5 5 5 5 5 5 5 5 18 99 100 100 100 100 92 100 100 100 96 24 5 5 5 12 3 3 5 5 18 67 100 100 100 100 100 100 100 100 100 100
4 0 0 5 5 5 4 5 5 5 5 31 77 62 92 100 100 100 100 100 100 100 100 100 100 20 97 57 24 7 5 5 88 100 100 100 100 100 100 100 100 100 100
1 5 2 3 4 3 5 5 5 5 6 5 13 14 44 82 80 100 100 100 100 100 100 100 100 100 19 7 100 100 100 5 45 100 100 100 100 100 100 100 100 100 100
5 5 5 5 5 5 5 5 5 5 24 9 5 18 77 95 75 44 66 100 100 78 100 100 100 100 100 100 100 100 100 100 100 98 100 100 100 100 100 100 100 100 100
5 5 5 8 42 59 46 6 5 5 5 5 5 5 5 5 22 70 74 97 100 98 100 100 100 93 5 83 100 100 100 100 89 100 100 100 100 100 100 100 100 100 100
5 5 5 9 24 43 56 64 7 5 5 5 5 5 5 5 5 5 5 90 100 96 100 100 100 60 77 100 100 100 100 100 86 100 100 100 100 100 100 100 100 100 100
0 3 5 5 27 47 34 22 5 5 5 5 5 5 0 5 44 85 100 94 100 100 99 100 95 46 100 100 100 100 100 100 100 100 100 100 100 100 100 100 100 100 100
0 0 0 5 5 5 5 5 4 0 2 5 5 1 0 2 8 97 11 80 100 100 19 74 100 100 100 100 100 100 100 100 100 100 100 100 100 100 100 100 100 100 100
5 5 4 0 5 0 0 0 0 0 0 0 0 0 0 2 5 5 14 5 46 100 100 100 100 100 100 100 100 100 100 100 100 100 100 100 100 100 100 100 100 100 100
0 0 0 0 0 0 0 0 0 0 0 0 0 0 0 2 5 5 5 65 83 100 100 100 99 100 100 100 100 100 100 100 100 100 100 100 100 100 100 100 100 100 100
0 0 0 0 0 0 0 0 0 0 0 0 0 0 2 5 14 30 81 8 100 100 66 100 100 100 100 99 100 100 100 100 100 100 100 100 100 100 100 100 100 100 100
1 0 0 0 0 0 0 0 0 0 0 0 0 0 4 5 9 29 98 57 92 100 100 100 100 100 100 100 100 100 100 100 100 100 100 100 100 100 100 100 100 100 100
0 0 0 0 0 0 0 0 0 0 0 0 0 0 4 31 81 74 96 97 100 100 100 100 100 100 100 100 100 100 100 100 100 100 100 100 100 100 100 100 100 100 100
0 0 0 0 0 0 0 7 0 0 0 0 9 41 87 100 100 100 100 100 100 100 100 100 100 100 100 100 100 100 100 100 100 100 100 100 100 100 100 100 100 100 100
0 0 0 0 0 0 2 6 10 22 51 96 100 100 100 100 100 100 100 100 100 100 100 100 100 100 100 100 100 100 100 100 100 100 100 100 100 100 100 100 100 100 100
0 0 0 0 0 0 16 57 97 100 100 100 100 100 100 100 100 100 100 100 100 100 100 100 100 100 100 100 100 100 100 100 100 100 100 100 100 100 100 100 100 100 100
98 84 4 5 9 5 15 88 100 100 100 100 100 100 100 100 100 100 100 100 100 100 100 100 100 100 100 100 100 100 100 100 100 100 100 100 100 100 100 100 100 100 100
100 100 100 100 100 48 58 98 100 100 98 100 100 100 100 100 100 100 100 100 100 100 100 100 100 100 100 100 100 100 100 100 100 100 100 100 100 100 100 100 100 100 100
100 100 100 100 100 100 100 100 100 96 100 100 100 100 100 100 100 100 100 100 100 100 100 100 100 100 100 100 96 95 100 100 100 100 100 100 100 100 100 100 100 100 100
36 100 100 100 100 100 100 100 100 100 100 100 100 100 100 100 100 100 100 100 100 100 100 100 100 100 100 100 100 100 100 100 100 100 100 100 100 100 100 99 100 100 100
49 71 78 91 93 100 100 100 100 100 100 100 100 100 100 100 100 100 100 100 100 100 100 100 100 100 100 100 100 100 100 100 100 100 100 100 88 100 99 100 100 100 100
100 100 77 76 100 100 100 100 100 100 100 100 100 100 100 100 100 100 100 100 100 100 98 100 42 99 100 100 100 100 100 100 100 99 78 100 100 100 100 95 100 100 100
100 100 100 100 100 100 100 100 100 100 100 100 100 100 100 100 100 94 98 100 100 100 100 100 99 100 100 100 100 100 100 100 100 100 100 100 100 100 100 100 98 100 100
100 100 100 100 100 100 100 100 100 100 100 100 100 100 100 100 100 100 100 100 100 100 100 100 100 100 100 100 100 100 100 100 100 100 97 100 100 100 100 100 100 100 100
100 100 100 100 100 100 100 100 100 100 100 100 100 100 100 100 100 100 100 100 100 100 100 100 100 100 100 100 100 100 100 100 98 100 100 100 100 100 100 100 100 100 100

GFSMA_prec_cloud_237.txt.gz
Cloud_Cover
0 0 0 0 0 2 0 0 4 2 1 3 4 3 5 5 4 3 31 82 99 100 97 97 15 33 65 88 100 76 3 4 84 100 100 72 17 100 100 47 52 68 100
0 0 0 0 0 0 3 4 5 5 4 0 0 0 0 0 0 2 3 1 15 62 100 95 100 100 98 100 100 100 81 5 6 100 34 100 100 100 100 100 94 98 96
0 0 0 0 4 0 5 5 5 5 5 5 5 5 5 3 0 0 1 5 2 3 3 13 85 98 95 100 100 100 100 5 100 100 100 100 100 100 100 100 100 100 100
2 5 5 2 0 5 5 5 5 5 13 19 7 5 5 5 5 0 1 4 5 5 4 5 5 79 45 86 65 60 12 98 94 84 59 51 66 94 100 99 95 97 100
5 15 8 5 5 3 0 3 5 5 5 5 5 3 2 0 1 2 0 0 5 5 0 4 5 5 41 48 87 58 86 64 100 99 99 89 96 90 100 100 100 100 100
10 18 14 8 24 5 5 3 1 1 1 0 0 0 0 0 0 0 0 0 0 5 5 5 5 9 59 47 6 11 98 98 86 83 100 100 100 100 100 100 100 100 100
11 5 5 5 8 50 27 5 5 0 0 0 0 0 0 0 0 0 0 0 0 5 5 5 5 43 100 100 100 100 100 100 100 100 100 100 100 100 100 100 100 100 100
30 5 6 25 5 6 5 5 5 2 0 0 0 0 0 0 0 0 0 0 0 1 5 5 31 39 42 98 100 100 100 100 100 100 100 100 100 100 100 100 100 100 100
38 12 46 58 18 7 5 5 1 1 0 0 0 0 0 0 0 0 0 0 0 4 5 5 51 7 5 54 100 100 100 100 100 100 100 100 100 100 100 100 100 100 100
43 7 11 9 35 6 5 5 1 0 0 0 0 0 0 0 0 0 0 0 0 0 2 5 83 100 88 100 100 100 100 100 100 100 100 100 100 100 100 100 100 100 100
5 5 5 5 5 5 0 0 0 0 0 0 0 0 0 0 0 0 0 0 0 0 0 5 6 69 97 99 100 100 100 100 100 100 100 100 100 100 100 100 100 100 100
1 5 5 1 0 0 0 0 0 0 0 0 0 0 0 0 0 0 0 0 0 6 83 82 30 64 100 100 100 100 100 100 100 100 100 100 100 100 100 100 100 100 100
5 3 0 0 0 0 4 5 2 0 0 0 0 0 0 0 0 1 3 5 66 72 36 43 15 75 77 100 100 100 100 100 100 100 100 100 100 100 75 100 100 93 77
5 5 2 0 0 5 5 5 5 5 1 0 0 0 0 0 0 10 99 100 100 100 100 71 77 100 100 100 100 100 100 100 100 100 100 100 93 94 100 100 99 80 80
1 1 0 0 0 2 2 4 5 0 1 0 0 0 0 0 1 1 5 5 50 92 95 100 100 100 100 99 100 100 100 100 100 100 100 100 100 100 100 100 98 100 100
100 100 100 76 44 27 11 1 2 4 20 36 32 41 43 53 36 25 37 40 8 50 92 100 60 91 95 100 100 100 100 100 100 100 100 100 100 100 100 100 100 100 100
7 99 100 100 100 100 100 100 100 100 100 100 100 100 100 100 100 100 100 100 100 100 100 100 92 88 100 100 100 100 100 100 100 100 100 100 100 100 100 100 100 100 100
100 100 100 100 100 100 100 100 100 100 100 100 100 100 100 100 100 100 100 100 100 100 100 100 100 100 100 100 100 100 100 100 100 100 100 100 100 100 100 100 100 100 100
96 100 100 100 100 100 100 85 100 100 100 100 100 99 100 100 100 100 100 100 100 100 100 100 100 100 100 100 100 100 100 100 100 100 100 100 100 95 47 100 100 100 100
39 63 84 100 100 100 100 100 100 100 100 100 100 100 100 100 100 100 100 100 100 100 100 100 100 100 100 100 100 100 100 100 100 99 96 83 89 83 44 100 100 99 98
52 100 100 100 100 94 86 100 100 100 92 62 100 100 100 100 100 100 100 100 100 100 100 100 100 100 100 100 100 100 100 100 100 100 85 72 66 60 100 100 100 100 100
100 100 100 100 100 82 100 100 100 100 100 100 100 100 100 100 100 100 100 100 100 100 100 100 100 100 100 100 100 100 100 100 100 89 100 99 89 100 100 100 100 100 100
100 100 100 100 100 100 100 100 100 100 100 97 98 100 100 100 100 100 100 100 100 100 100 100 100 100 100 100 100 100 100 100 88 80 100 100 100 100 100 100 100 100 100
100 100 98 91 82 93 100 100 100 100 100 100 100 100 100 100 100 100 100 100 100 100 100 100 100 100 100 100 100 100 100 100 100 100 89 100 100 100 100 100 100 100 100
100 100 100 100 100 100 100 100 100 100 100 100 100 100 100 100 100 100 100 100 100 100 100 100 100 100 100 100 100 100 100 100 100 100 100 100 100 100 100 100 100 100 98
90 100 100 100 100 100 100 100 100 100 100 100 100 100 100 100 100 100 100 100 100 100 100 100 100 100 100 100 100 100 100 100 100 100 100 94 100 100 96 100 100 100 100

GFSMA_prec_cloud_243.txt.gz
Cloud_Cover
37 48 46 78 95 44 28 23 21 13 1 0 0 0 0 0 0 0 0 0 0 0 0 0 0 0 0 5 5 5 5 1 5 5 5 5 5 41 43 100 100 100 100
6 18 28 44 52 42 28 20 12 12 5 0 0 0 0 0 0 0 0 0 0 0 0 0 0 0 0 0 0 0 0 5 5 5 7 53 100 100 100 100 100 100 100
5 5 10 14 17 34 24 26 12 4 5 0 0 0 0 0 0 0 0 0 0 0 0 0 0 0 0 0 0 0 5 5 5 46 100 100 100 22 97 100 64 100 100
6 5 5 3 2 16 6 14 10 5 6 7 5 5 5 4 1 0 0 0 0 0 0 0 0 0 0 0 5 10 9 100 100 100 100 100 13 100 100 100 100 100 100
11 7 5 40 5 1 0 1 5 5 5 5 2 5 5 5 5 5 1 0 0 0 0 0 0 0 0 0 0 13 23 42 35 100 100 100 98 100 100 100 100 100 99
10 5 5 5 2 0 0 4 5 5 5 5 5 5 5 7 5 5 0 0 0 0 0 0 0 0 0 0 4 5 5 51 90 100 100 98 100 99 96 86 100 100 100
58 45 14 5 0 0 0 0 3 5 0 5 5 5 28 18 5 4 0 0 0 0 0 0 0 0 0 0 5 5 22 5 56 82 10 100 80 5 45 96 94 100 100
59 17 5 5 5 5 1 5 5 5 5 5 5 5 5 5 0 0 0 0 0 0 0 0 0 0 0 0 5 6 44 71 100 100 96 35 5 20 65 100 100 100 100
100 73 33 7 5 5 5 5 5 9 5 5 5 5 4 4 0 0 0 0 0 0 0 0 0 0 0 0 3 5 19 89 100 87 86 68 72 100 100 100 100 100 100
100 100 26 35 5 5 5 1 5 5 5 5 6 5 5 2 0 0 0 0 0 0 0 2 5 5 93 92 84 31 52 98 98 100 100 95 94 100 100 100 100 100 100
41 65 15 5 5 5 0 0 5 5 5 5 5 5 5 5 5 5 3 0 0 0 0 0 5 5 18 66 100 100 100 100 100 100 98 96 79 100 100 100 100 100 100
0 0 3 10 5 6 5 5 5 5 5 5 5 5 5 5 5 5 12 6 0 0 0 0 1 14 43 44 98 100 100 100 100 100 99 100 100 100 100 100 100 100 100
0 0 0 0 0 5 21 54 10 5 5 5 5 5 5 5 5 5 0 0 2 0 0 0 5 25 100 100 100 100 100 100 100 100 100 100 100 100 100 100 100 99 100
5 0 0 0 0 0 0 0 5 5 5 5 5 0 0 0 1 5 3 5 8 30 15 86 99 53 75 96 100 100 100 100 100 100 100 100 100 100 100 100 100 98 94
48 43 5 3 3 5 3 0 0 0 0 0 0 0 0 5 5 5 9 5 99 100 100 100 100 66 51 100 100 100 100 100 100 100 100 100 100 100 94 100 100 100 100
49 14 91 19 5 5 8 5 5 5 3 13 5 32 97 100 100 100 87 100 100 100 100 100 100 100 100 100 100 100 100 100 100 100 100 100 100 100 100 100 89 100 100
100 83 100 99 12 45 72 6 64 100 97 95 23 11 89 100 99 100 92 100 100 98 93 100 100 100 100 100 100 100 100 100 100 100 100 100 100 100 100 100 100 100 100
100 95 92 100 100 8 100 43 100 100 100 100 100 41 94 22 100 100 100 100 100 100 100 100 100 100 100 100 100 100 100 100 100 100 100 100 100 100 100 100 95 100 100
100 100 11 2 28 18 12 95 100 100 98 100 100 100 100 100 97 100 100 100 100 100 100 100 100 100 100 100 100 100 100 100 100 100 100 100 100 100 100 100 98 99 91
100 100 100 75 6 5 5 29 44 79 82 23 62 100 79 44 63 78 100 100 100 100 100 100 100 100 100 100 100 100 100 100 100 100 100 100 100 100 100 100 56 100 100
92 94 100 100 100 86 16 12 55 51 31 28 30 24 96 96 100 100 100 100 100 100 100 100 100 100 100 100 100 100 100 100 100 100 100 100 100 100 95 95 100 100 100
100 95 100 100 100 100 100 100 100 26 80 90 96 100 100 100 100 100 100 82 100 100 100 100 100 100 100 100 100 100 100 100 100 100 100 100 100 100 92 100 100 100 100
100 100 98 100 100 100 100 100 100 100 96 70 100 100 100 100 100 100 100 100 100 100 100 98 100 100 100 100 100 100 100 100 100 100 100 100 100 100 100 100 100 100 100
100 100 100 94 97 100 100 100 100 100 100 100 99 100 100 100 100 100 100 100 100 94 100 100 100 100 100 100 100 100 100 100 100 100 100 100 100 100 100 100 100 100 99
100 99 56 78 92 63 100 100 100 100 100 100 100 100 100 100 100 100 100 100 100 100 100 100 100 100 100 100 100 100 100 100 100 100 100 100 100 100 100 100 100 100 100
60 100 100 100 100 100 99 100 100 100 100 100 100 100 100 100 100 100 100 100 100 100 100 100 100 100 100 100 100 100 100 100 100 100 100 100 100 100 100 100 100 100 100